Regional Weather Roundup
Issued by NWS Sterling, VA

Current Version | Previous Version | Text Only | Print | Product List | Glossary On
Versions: 1 2 3 4 5 6 7 8 9 10 11 12 13 14 15 16 17 18 19 20 21 22 23 24 25 26 27
000
ASUS41 KLWX 231811
RWRLWX

REGIONAL WEATHER ROUNDUP
NATIONAL WEATHER SERVICE BALTIMORE MD/WASHINGTON DC
200 PM EDT SUN APR 23 2017

Note: "FAIR" indicates few or no clouds below 12,000 feet
with no significant weather and/or obstructions to visibility.
 TC=TEMPERATURE CELSIUS

 * =Non NWS site. Station does not report precipitation (e.g. rain,
    snow, etc.), thunder, or fog.

DCZ001-MDZ009-015-VAZ040>042-051-053>054-231900-
WASHINGTON METRO

CITY           SKY/WX    TMP DP  RH WIND       PRES   REMARKS
WASHINGTON NAT CLOUDY    59  43  55 N3        30.13F
DULLES         PTSUNNY   58  42  55 VRB5      30.11F
ANDREWS AFB    CLOUDY    57  43  59 E6        30.11F
FT BELVOIR     CLOUDY    58  42  56 CALM      30.12F
QUANTICO       MOSUNNY   58  46  64 NE8       30.13F
COLLEGE PARK*  CLOUDY    57  40  54 NE3       30.12F
LEESBURG*      CLOUDY    61  43  51 CALM      30.12F
MANASSAS*        N/A     58  42  55 NE8       30.12F

$$

MDZ006>007-011-014-231900-
BALTIMORE METRO

CITY           SKY/WX    TMP DP  RH WIND       PRES   REMARKS
BWI AIRPORT    CLOUDY    59  41  51 E7        30.12F
MD SCIENCE CTR   N/A     60  40  47 MISG      30.13F
MARTIN STATE   PTSUNNY   61  46  59 SE10      30.15S
ANNAPOLIS      PTSUNNY   58  44  60 SE3       30.12F
FORT MEADE*    PTSUNNY   59  41  51 NE5       30.14F

$$

MDZ012-015-019>023-231900-
MARYLAND EASTERN SHORE

CITY           SKY/WX    TMP DP  RH WIND       PRES   REMARKS
OCEAN CITY     CLOUDY    56  47  71 NE10      30.14R
SALISBURY      PTSUNNY   59  46  62 E9        30.11F
BAY BRIDGE AP* PTSUNNY   57  45  62 NW6       30.13F
CAMBRIDGE*     CLOUDY    59  45  58 E7        30.12S
EASTON*        PTSUNNY   61  43  51 E7        30.16F

$$

MDZ017>025-231900-
SOUTHERN MARYLAND

CITY           SKY/WX    TMP DP  RH WIND       PRES   REMARKS
PATUXENT RIVER CLOUDY    57  48  72 NE6       30.11F
ST INIGOES     CLOUDY    58  46  64 N6        30.10F
LEONARDTOWN*   CLOUDY    55  43  62 E6        30.12F

$$

MDZ003>005-231900-
NORTH CENTRAL MARYLAND

CITY           SKY/WX    TMP DP  RH WIND       PRES   REMARKS
FREDERICK*     SUNNY     63  46  55 CALM      30.14F
HAGERSTOWN APT MOSUNNY   62  40  44 SE7       30.10F
WESTMINSTER*   SUNNY     63  43  48 CALM      30.10F

$$

MDZ501>502-231900-
WESTERN MARYLAND

CITY           SKY/WX    TMP DP  RH WIND       PRES   REMARKS
OAKLAND*       MOSUNNY   52  32  46 E14       30.07F
CUMBERLAND*    CLOUDY    61  37  41 S5        30.13F

$$

VAZ025>031-231900-
SHENANDOAH VALLEY

CITY           SKY/WX    TMP DP  RH WIND       PRES   REMARKS
WINCHESTER*    MOSUNNY   55  39  54 N6        30.10F
FRONT ROYAL*   MOSUNNY   55  43  62 E6        30.09F
LURAY*         MOSUNNY   57  43  58 N5        30.09F
NEW MARKET*    PTSUNNY   56  38  52 N6        30.08F
STAUNTON*      CLOUDY    54  42  62 N8        30.10F
WAYNESBORO*    CLOUDY    53  44  72 E3        30.08F

$$

WVZ021-048>050-054>055-231900-
EASTERN WEST VIRGINIA PANHANDLE

CITY           SKY/WX    TMP DP  RH WIND       PRES   REMARKS
MARTINSBURG    MOSUNNY   60  39  45 E5        30.09F
PETERSBURG*    CLOUDY    60  41  50 NE5       30.09F

$$

VAZ036>039-050-231900-
CENTRAL FOOTHILLS

CITY           SKY/WX    TMP DP  RH WIND       PRES   REMARKS
CHARLOTTESVILL CLOUDY    57  41  55 NE9       30.10F
CULPEPER*      CLOUDY    57  43  59 E3        30.12F
ORANGE*        CLOUDY    54  41  62 E3        30.11F
GORDONSVILLE*  CLOUDY    54  42  63 NE7       30.10F
WARRENTON*     CLOUDY    59  38  47 NE7       30.12F

$$

VAZ055>057-231900-
NORTH AND CENTRAL PIEDMONT

CITY           SKY/WX    TMP DP  RH WIND       PRES   REMARKS
FREDERICKSBRG* MOSUNNY   58  45  62 NE9       30.11F
STAFFORD*      CLOUDY    57  46  67 CALM      30.15F

$$

NCZ024-NYZ072-PAZ021-071-VAZ022-071-231900-
OTHER REGIONAL OBSERVATIONS

CITY           SKY/WX    TMP DP  RH WIND       PRES   REMARKS
NEW YORK CITY  SUNNY     65  33  30 N3        30.12F
PHILADELPHIA   PTSUNNY   63  40  42 VRB5      30.11F
PITTSBURGH     PTSUNNY   63  32  31 SE6       30.06F
ROANOKE        LGT RAIN  50  47  89 SE7       30.09F
RICHMOND       CLOUDY    57  47  69 NE8       30.10F
RALEIGH        LGT RAIN  54  52  93 E10G20    30.02S FOG

$$

ANZ530>537-231900-
MARINE OBSERVATIONS

STATION/POSITION TIME  TEMP    WIND        PRES
                       AIR SEA DIR/SP/G
                 (UTC) (F)     (DEG/KT/KT) (MB)
THOMAS PT LIGHT  1800   54 58  360/  4/  5   N/A
BALT KEY BRIDGE  1748   55     170/  6/  7 1020.4F
COVE POINT       1748   54     360/  6/  8 1020.5F
LEWISETTA        1748   55 62   70/  4/  6 1019.4F
SOLOMONS ISLAND  1748   55 61   90/  7/  9   N/A
PINEY POINT      1748          100/  5/  6   N/A

$$





USA.gov is the U.S. government's official web portal to all federal, state and local government web resources and services.